Flag for China Weather past 2 weeks in Shanghai, Shanghai Municipality, China

Now
72 °F

Passing clouds.


Feels Like: 67 °F
Forecast: 67 / 86 °F
Wind: 3 mph from West

Location: Shanghai Hongqiao Airport

Current Time: Aug 20, 2014 at 10:59:27 PM

Latest Report: Aug 20, 2014 at 10:30 PM


Visibility: N/A

Pressure: 29.83 "Hg

Humidity: 94%

Dew point: 70 °F

Location of ShanghaiLocation

Historic Weather in Shanghai — Graph

°F

Shanghai temperature yesterday

Maximum temperature yesterday: 75 °F (at 1:00 PM)
Minimum temperature yesterday: 70 °F (at 5:30 AM)
Average temperature yesterday: 73 °F

Past Weeks' High & Low Weather Summary

 TemperatureHumidityPressure
High95 °F (Aug 6, 12:00 PM)100% (Aug 17, 2:00 AM)29.89 "Hg (Aug 17, 2:00 AM)
Low70 °F (Aug 19, 5:30 AM)52% (Aug 11, 3:00 PM)29.53 "Hg (Aug 7, 3:00 PM)
Average79 °F83%29.70 "Hg
* Reported Aug 5 9:00 PM — Aug 20 9:30 PM, Shanghai, Weather by CustomWeather, © 2014

Note: Actual official high and low records may vary slightly from our data, if they occured in-between our weather recording intervals... More about our weather records

Advertising

Shanghai weather history for previous 24 hours

 ConditionsComfort  
Time TempWeatherWind HumidityBarometerVisibility
9:30 PM
Aug 20
72 °FPassing clouds.3 mph94%29.83 "HgN/A
9:00 PM72 °FClear.3 mph94%29.83 "Hg10 mi
8:30 PM72 °FPassing clouds.3 mph94%29.83 "HgN/A
8:00 PM72 °FClear.3 mph94%29.83 "Hg10 mi
7:30 PM72 °FClear.6 mph94%29.80 "Hg10 mi
7:00 PM72 °FLight rain. Passing clouds.6 mph94%29.80 "HgN/A
6:30 PM72 °FLight rain. Partly sunny.8 mph94%29.80 "HgN/A
6:00 PM73 °FLight rain. Scattered clouds.8 mph89%29.80 "HgN/A
5:30 PM73 °FLight rain. Partly sunny.8 mph89%29.80 "HgN/A
5:00 PM73 °FPartly sunny.10 mph89%29.77 "HgN/A
4:30 PM73 °FPartly sunny.10 mph89%29.77 "HgN/A
4:00 PM73 °FLight rain. Partly sunny.10 mph89%29.77 "HgN/A
3:30 PM73 °FLight rain. Partly sunny.10 mph94%29.77 "Hg5 mi
3:00 PM73 °FLight rain. Partly sunny.13 mph89%29.77 "Hg5 mi
2:30 PM73 °FLight rain. Partly sunny.10 mph100%29.77 "Hg4 mi
2:00 PM75 °FLight rain. Partly sunny.10 mph94%29.77 "Hg4 mi
1:30 PM75 °FRain. Partly sunny.13 mph94%29.77 "Hg4 mi
1:00 PM75 °FRain. Fog.10 mph94%29.77 "Hg3 mi
12:30 PM75 °FRain. Partly sunny.8 mph94%29.77 "Hg4 mi
12:00 PM75 °FLight rain. Partly sunny.8 mph94%29.77 "HgN/A
11:30 AM73 °FLight rain. Partly sunny.10 mph100%29.77 "Hg4 mi
11:00 AM73 °FLight rain. Partly sunny.10 mph100%29.77 "Hg4 mi
10:30 AM73 °FRain. Fog.8 mph100%29.80 "Hg2 mi
10:00 AM73 °FRain. Fog.3 mph94%29.83 "Hg3 mi
9:30 AM73 °FRain. Fog.8 mph94%29.83 "Hg2 mi
9:00 AM72 °FRain. Fog.8 mph100%29.83 "Hg2 mi
8:30 AM73 °FHeavy rain. Fog.6 mph94%29.83 "Hg1 mi
8:00 AM73 °FRain. Fog.1 mph94%29.86 "Hg3 mi
7:30 AM73 °FLight rain. Fog.6 mph94%29.83 "Hg3 mi
7:00 AM73 °FRain. Fog.6 mph94%29.80 "Hg2 mi
6:30 AM73 °FLight rain. Fog.3 mph94%29.83 "Hg2 mi
6:00 AM73 °FLight rain. Fog.3 mph94%29.80 "Hg2 mi
5:30 AM73 °FLight rain. Fog.6 mph94%29.80 "Hg3 mi
5:00 AM73 °FLight rain. Clear.3 mph94%29.80 "Hg4 mi
4:30 AM73 °FLight rain. Passing clouds.3 mph94%29.80 "Hg4 mi
4:00 AM73 °FLight rain. Passing clouds.3 mph94%29.80 "Hg4 mi
3:30 AM73 °FLight rain. Overcast.3 mph94%29.80 "Hg5 mi
3:00 AM73 °FOvercast.1 mph94%29.83 "Hg5 mi
2:30 AM73 °FPassing clouds.1 mph94%29.83 "HgN/A
2:00 AM73 °FPassing clouds.1 mph94%29.83 "HgN/A
1:30 AM73 °FPassing clouds.1 mph94%29.83 "HgN/A
1:00 AM73 °FPassing clouds.1 mph94%29.83 "HgN/A
12:30 AM73 °FPassing clouds.No wind94%29.83 "HgN/A
12:00 AM73 °FClear.3 mph94%29.86 "Hg10 mi
11:30 PM
Aug 19
73 °FClear.1 mph94%29.86 "Hg10 mi
11:00 PM73 °FClear.No wind94%29.83 "Hg10 mi
10:30 PM73 °FClear.No wind94%29.86 "Hg10 mi
10:00 PM73 °FPassing clouds.3 mph94%29.83 "HgN/A
Weather by CustomWeather, © 2014

See weather overviewHow to use our weather pages